Regional Weather Roundup
Issued by NWS Cleveland, OH

Home | Current Version | Previous Version | Graphics & Text | Print | Product List | Glossary On
Versions: 1 2 3 4 5 6 7 8 9 10 11 12 13 14 15 16 17 18 19 20 21 22 23 24 25 26 27 28 29 30 31 32 33 34 35 36 37 38 39 40 41 42 43 44 45 46 47 48 49 50
000
ASUS41 KCLE 190102
RWRCLE
OHIO REGIONAL WEATHER ROUNDUP
NATIONAL WEATHER SERVICE CLEVELAND, OH
800 PM EST SUN FEB 18 2018

NOTE: "FAIR" INDICATES FEW OR NO CLOUDS BELOW 12,000 FEET WITH NO
SIGNIFICANT WEATHER AND/OR OBSTRUCTIONS TO VISIBILITY.

OHZ001>008-015>018-024>027-034-035-043-044-190200-
   NORTHWEST OHIO

CITY           SKY/WX    TMP DP  RH WIND       PRES   REMARKS
DEFIANCE       FAIR      37  30  75 SE7       30.17F
FINDLAY        FAIR      37  28  70 SE9       30.19F
TOLEDO EXPRESS FAIR      35  31  85 E5        30.19F
TOLEDO EXEC    FAIR      36  29  75 SE8       30.21F
LIMA           FAIR      36  31  82 SE10      30.18F
$$

OHZ009>014-019>023-028>033-038-089-190200-
   NORTHEAST OHIO

CITY           SKY/WX    TMP DP  RH WIND       PRES   REMARKS
CLE-HOPKINS    MOCLDY    38  27  64 SE9       30.26F
CLE-LAKEFRONT  FAIR      39  26  59 SE9       30.24F
CUY CO. ARPT   PTCLDY    39  27  60 S12       30.25F
LORAIN-ELYRIA  FAIR      37  24  59 S10       30.23F
ASHTABULA      FAIR      36  27  69 SE8       30.29F
AKRON-CANTON   MOCLDY    35  25  66 SE10      30.26F WCI  27
WOOSTER        FAIR      34  27  75 SE9       30.25F WCI  27
MANSFIELD      FAIR      36  27  69 SE15      30.22F
YOUNGSTOWN     FAIR      34  26  72 SE8       30.28F WCI  27
$$

OHZ042-051>053-060>062-070>072-077>081-190200-
  SOUTHWEST OHIO

CITY           SKY/WX    TMP DP  RH WIND       PRES   REMARKS
CINC-COVINGTON CLOUDY    41  34  76 E7        30.17F
CINC-LUNKEN    FAIR      41  34  76 NE3       30.20F
HAMILTON       FAIR      38  33  82 E5        30.20F
DAYTON         MOCLDY    38  32  79 SE10      30.20R
WRIGHT-PAT AFB FAIR      39  30  70 SE6       30.20S
DAYTON GENERAL FAIR      40  30  67 SE7       30.19S
WILMINGTON     FAIR      38  33  82 SE10      30.20S
$$

OHZ036-037-039>041-045>050-054>059-063>069-073>076-082>088-190200-
  CENTRAL AND SOUTHEAST OHIO

CITY           SKY/WX    TMP DP  RH WIND       PRES   REMARKS
COLUMBUS       MOCLDY    39  30  70 SE9       30.24S
OSU AIRPORT    FAIR      38  30  73 SE9       30.23S
BOLTON FIELD   NOT AVBL
RICKENBACK AFB FAIR      37  30  78 SE6       30.24S
NEWARK         FAIR      37  28  70 E7        30.24F
MARION         FAIR      36  27  69 SE9       30.22F
LANCASTER      FAIR      38  29  70 SE7       30.24F
ZANESVILLE     FAIR      36  27  69 SE6       30.27F
NEW PHILLY     NOT AVBL
$$




USA.gov is the U.S. government's official web portal to all federal, state and local government web resources and services.